GW0458 Weather Reports


time (UTC)temp
F
wind
direction
speed
knots
gust
knots
rain 1hr
in
rain 24hr
in
rain mn
in
humidity
%
barometer
mb
20260904221502 72 210 1.7 1.7 0.00 0.00 0.00 58 1021.3
20260904214501 72 164 0.9 0.9 0.00 0.00 0.00 58 1021.0
20260904211457 73 206 0.0 0.0 0.00 0.00 0.00 56 1020.9
20260904204453 71 229 0.9 1.7 0.00 0.00 0.00 61 1021.1
20260904201451 70 212 0.9 0.9 0.00 0.00 0.00 63 1021.1
20260904194450 68 220 0.0 0.9 0.00 0.00 0.00 69 1021.4
20260904191446 69 204 0.9 0.9 0.00 0.00 0.00 68 1021.3
20260904184442 67 238 1.7 2.6 0.00 0.00 0.00 71 1021.4
20260904181442 65 209 0.9 0.9 0.00 0.00 0.00 78 1021.5
20260904174438 64 203 0.0 0.9 0.00 0.00 0.00 80 1021.6
20260904171433 60 208 0.0 0.9 0.00 0.00 0.00 90 1021.6
20260904164430 58 211 0.0 0.0 0.00 0.00 0.00 94 1021.4
20260904161429 56 206 0.0 0.0 0.00 0.00 0.00 99 1021.5
20260904154426 54 203 0.9 0.9 0.00 0.00 0.00 99 1021.1
20260904151426 54 197 0.0 0.9 0.00 0.00 0.00 99 1020.8
20260904144424 52 199 0.9 0.9 0.00 0.00 0.00 99 1020.6
20260904141421 51 204 0.0 0.0 0.00 0.00 0.00 99 1020.6
20260904134418 51 200 0.9 0.9 0.00 0.00 0.00 99 1020.1
20260904131417 51 201 0.0 0.0 0.00 0.00 0.00 99 1020.1
20260904124416 51 197 0.0 0.9 0.00 0.00 0.00 99 1019.9
20260904121416 51 200 0.0 0.0 0.00 0.00 0.00 99 1019.5
20260904114416 51 199 0.0 0.0 0.00 0.00 0.00 99 1019.5
20260904111414 51 178 0.0 0.0 0.00 0.00 0.00 99 1019.3
20260904104413 52 204 0.0 0.0 0.00 0.00 0.00 99 1019.0
20260904101411 52 201 0.0 0.0 0.00 0.00 0.00 99 1018.8
20260904094411 53 204 0.0 0.0 0.00 0.00 0.00 99 1018.8
20260904091408 53 198 0.0 0.9 0.00 0.00 0.00 99 1018.8
20260904084403 53 200 0.0 0.0 0.00 0.00 0.00 99 1019.0
20260904081358 53 202 0.0 0.0 0.00 0.00 0.00 99 1018.5
20260904074357 54 200 0.0 0.0 0.00 0.00 0.00 99 1018.8
20260904071353 54 206 0.0 0.0 0.00 0.00 0.00 99 1019.1
20260904064351 54 200 0.9 0.9 0.00 0.00 0.00 99 1018.9
20260904061349 55 203 0.0 0.9 0.00 0.00 0.00 97 1018.8
20260904054345 55 205 0.0 0.0 0.00 0.00 0.00 96 1018.4
20260904051342 55 205 0.0 0.0 0.00 0.00 0.00 96 1018.5
20260904044342 54 206 0.0 0.0 0.00 0.00 0.00 99 1018.8
20260904041339 55 204 0.0 0.0 0.00 0.00 0.00 99 1018.7
20260904034334 55 197 0.0 0.0 0.00 0.00 0.00 97 1018.4
20260904031329 57 201 0.9 0.9 0.00 0.00 0.00 94 1018.2
20260904024324 57 193 0.0 0.9 0.00 0.00 0.00 96 1018.1
20260904021321 56 171 1.7 1.7 0.00 0.00 0.00 97 1018.1
20260904014316 58 199 0.0 0.9 0.00 0.00 0.00 95 1017.8
20260904011311 61 204 0.0 0.9 0.00 0.00 0.00 87 1017.5
20260904004307 64 191 0.0 0.0 0.00 0.00 0.00 71 1017.5
20260904001307 64 70 1.7 1.7 0.00 0.00 0.00 68 1017.4
20260903234306 65 342 0.9 1.7 0.00 0.00 0.00 69 1017.2
20260903231304 66 189 0.0 0.9 0.00 0.00 0.00 70 1017.1
20260903224301 64 193 0.0 0.9 0.00 0.00 0.00 72 1017.5